Location: Caltech
(34.1382°N, 118.1253°W)
Time: 06:06:59
(UTC-07:00)

Cosmos 1937 Rocket - Visible Passes

Search period start: 23 October 2014 00:00
Search period end: 02 November 2014 00:00
Orbit: 747 x 782 km, 74.0° (Epoch: 22 October)

Date Brightness Start Highest point End Pass type
(mag) Time Alt. Az. Time Alt. Az. Time Alt. Az.
23 Oct 6.2 03:49:18 13° ESE 03:49:18 13° ESE 03:49:58 10° ESE visible
23 Oct 4.7 05:29:39 26° SW 05:29:39 26° SW 05:32:23 10° SSW visible
24 Oct 5.7 04:54:17 14° S 04:54:17 14° S 04:55:02 10° S visible
24 Oct 6.3 19:20:15 10° W 19:22:49 14° WNW 19:25:24 10° NNW visible
25 Oct 5.8 18:40:21 10° WSW 18:44:30 24° WNW 18:48:43 10° N visible
28 Oct 6.2 18:29:38 10° W 18:32:38 15° WNW 18:35:41 10° NNW visible
